TimePDT,TemperatureF,Dew PointF,Humidity,Sea Level PressureIn,VisibilityMPH,Wind Direction,Wind SpeedMPH,Gust SpeedMPH,PrecipitationIn,Events,Conditions,WindDirDegrees,DateUTC
12:56 AM,62.1,57.0,84,29.98,10.0,Calm,Calm,-,N/A,,Clear,0,2011-10-10 07:56:00
1:56 AM,61.0,55.9,83,29.99,10.0,Calm,Calm,-,N/A,,Clear,0,2011-10-10 08:56:00
2:56 AM,60.1,53.1,78,29.99,10.0,Calm,Calm,-,N/A,,Clear,0,2011-10-10 09:56:00
3:56 AM,61.0,54.0,78,29.98,10.0,South,3.5,-,N/A,,Mostly Cloudy,190,2011-10-10 10:56:00
4:33 AM,60.8,53.6,77,29.97,10.0,Calm,Calm,-,N/A,,Overcast,0,2011-10-10 11:33:00
4:56 AM,62.1,55.0,78,29.99,10.0,Calm,Calm,-,N/A,,Overcast,0,2011-10-10 11:56:00
5:56 AM,62.1,54.0,75,29.98,10.0,SE,4.6,-,N/A,,Overcast,140,2011-10-10 12:56:00
6:56 AM,63.0,54.0,72,29.98,10.0,SSE,3.5,-,N/A,,Overcast,150,2011-10-10 13:56:00
7:24 AM,62.6,53.6,72,29.98,10.0,SE,3.5,-,N/A,,Overcast,140,2011-10-10 14:24:00
7:46 AM,62.6,53.6,72,29.97,10.0,SE,5.8,-,N/A,,Overcast,140,2011-10-10 14:46:00
7:56 AM,63.0,54.0,72,29.99,10.0,SE,4.6,-,N/A,,Mostly Cloudy,140,2011-10-10 14:56:00
8:08 AM,62.6,55.4,77,29.98,10.0,SSE,4.6,-,N/A,,Scattered Clouds,150,2011-10-10 15:08:00
8:38 AM,64.4,57.2,77,30.00,10.0,SE,3.5,-,N/A,,Mostly Cloudy,140,2011-10-10 15:38:00
8:56 AM,64.9,57.0,75,30.01,10.0,SSE,3.5,-,N/A,,Overcast,160,2011-10-10 15:56:00
9:30 AM,66.2,57.2,73,29.99,10.0,SE,6.9,-,N/A,,Overcast,140,2011-10-10 16:30:00
9:56 AM,68.0,57.0,68,30.01,10.0,SE,4.6,-,N/A,,Overcast,130,2011-10-10 16:56:00
10:56 AM,69.1,57.9,68,30.01,10.0,Variable,3.5,-,N/A,,Overcast,0,2011-10-10 17:56:00
11:56 AM,72.0,57.9,61,30.00,10.0,ESE,3.5,-,N/A,,Overcast,110,2011-10-10 18:56:00
12:25 PM,71.6,57.2,60,29.99,10.0,SE,4.6,-,N/A,,Overcast,130,2011-10-10 19:25:00
12:56 PM,72.0,60.1,66,30.00,9.0,South,3.5,-,0.00,Rain,Light Rain,190,2011-10-10 19:56:00
1:56 PM,72.0,61.0,68,29.98,10.0,West,9.2,-,0.00,,Overcast,260,2011-10-10 20:56:00
2:10 PM,71.6,62.6,73,29.97,10.0,West,8.1,-,0.00,Rain,Light Rain,260,2011-10-10 21:10:00
2:56 PM,72.0,62.1,71,29.97,10.0,WNW,4.6,-,0.00,,Overcast,290,2011-10-10 21:56:00
3:39 PM,71.6,62.6,73,29.96,10.0,West,9.2,-,N/A,,Overcast,270,2011-10-10 22:39:00
3:56 PM,73.0,62.1,68,29.97,10.0,WSW,11.5,-,N/A,,Overcast,250,2011-10-10 22:56:00
4:56 PM,72.0,62.1,71,29.96,10.0,North,3.5,-,N/A,,Overcast,10,2011-10-10 23:56:00
5:56 PM,69.1,64.0,84,29.97,5.0,NNE,3.5,-,0.00,Rain,Light Rain,30,2011-10-11 00:56:00
6:11 PM,69.8,64.4,83,29.97,7.0,NNE,4.6,-,0.00,Rain,Light Rain,30,2011-10-11 01:11:00
6:25 PM,69.8,64.4,83,29.97,8.0,NNE,3.5,-,0.00,Rain,Light Rain,20,2011-10-11 01:25:00
6:43 PM,68.0,64.4,88,29.97,10.0,NE,4.6,-,0.00,,Overcast,40,2011-10-11 01:43:00
6:56 PM,68.0,64.0,87,29.99,10.0,NNE,3.5,-,0.00,,Overcast,20,2011-10-11 01:56:00
7:27 PM,68.0,64.4,88,29.99,8.0,NNE,4.6,-,0.01,Rain,Light Rain,20,2011-10-11 02:27:00
7:35 PM,66.2,64.4,94,29.99,6.0,NNE,3.5,-,0.02,Rain,Light Rain,30,2011-10-11 02:35:00
7:56 PM,66.9,64.0,90,30.00,7.0,ENE,3.5,-,0.02,Rain,Light Rain,60,2011-10-11 02:56:00
8:37 PM,66.2,64.4,94,29.99,6.0,Calm,Calm,-,0.00,Rain,Light Rain,0,2011-10-11 03:37:00
8:56 PM,66.9,64.9,93,30.01,9.0,Calm,Calm,-,0.00,,Overcast,0,2011-10-11 03:56:00
9:30 PM,66.2,64.4,94,29.99,10.0,ENE,3.5,-,N/A,,Overcast,70,2011-10-11 04:30:00
9:56 PM,66.9,64.9,93,30.01,10.0,Calm,Calm,-,N/A,,Overcast,0,2011-10-11 04:56:00
10:56 PM,68.0,66.0,93,30.01,10.0,SE,3.5,-,N/A,,Overcast,130,2011-10-11 05:56:00
11:34 PM,68.0,66.2,94,30.01,10.0,Calm,Calm,-,0.00,,Overcast,0,2011-10-11 06:34:00
11:56 PM,68.0,66.0,93,30.02,9.0,Calm,Calm,-,0.01,,Overcast,0,2011-10-11 06:56:00